Location: Chervonnoye
(48.6000°N, 34.4000°E)
Time: 20:45:06
(UTC+00:00)

RS-44 - Pass Details

Date: 07 December 2021
Orbit: 1175 x 1510 km, 82.5° (Epoch: 19 January)

Event Time Altitude Azimuth Distance (km) Brightness Sun altitude
Rises 00:56:28 0° 358° (N) 4,157 ? -42.5°
Reaches altitude 10° 01:02:54 10° 38° (NE) 3,272 ? -41.4°
Maximum altitude 01:03:57 10° 47° (NE) 3,264 ? -41.3°
Drops below altitude 10° 01:05:02 10° 55° (NE) 3,302 ? -41.1°
Sets 01:11:43 0° 94° (E) 4,375 ? -40.0°
